📊 Raw Sensor Data

Showing records 49226 to 49250 of 85,115 total

ID Distance (ft) Battery V Battery A Int Temp (°F) Int Humid (%) Ext Temp (°F) Solar V RSSI SNR Time Stamp
35902 -- 4.04 0 84 37 73 5.10 -83 8 03/24/2025 01:01 PM
35901 -- 4.04 0 83 37 72 5.10 -83 8 03/24/2025 12:45 PM
35900 -- 4.04 0 82 37 73 5.10 -83 8 03/24/2025 12:30 PM
35899 -- 4.08 0 81 37 72 5.10 -83 8 03/24/2025 12:15 PM
35898 -- 4.04 0 81 37 71 5.10 -81 9 03/24/2025 12:00 PM
35897 -- 4.04 0 80 37 75 5.10 -82 8 03/24/2025 11:45 AM
35896 -- 4.04 0 77 37 72 5.10 -82 8 03/24/2025 11:30 AM
35895 -- 4.04 0 76 37 72 5.10 -81 8 03/24/2025 11:15 AM
35894 -- 4.04 0 75 36 73 5.10 -80 8 03/24/2025 11:00 AM
35893 -- 4.04 0 73 36 76 5.10 -81 8 03/24/2025 10:45 AM
35892 -- 4.04 0 71 36 73 5.10 -81 8 03/24/2025 10:30 AM
35891 -- 4.03 0 69 36 72 5.10 -81 8 03/24/2025 10:15 AM
35890 -- 4.03 0 67 36 73 5.10 -81 7 03/24/2025 10:00 AM
35889 -- 4.03 0 65 36 66 5.10 -81 7 03/24/2025 09:45 AM
35888 -- 4.03 0 62 37 68 5.10 -81 8 03/24/2025 09:30 AM
35887 -- 4.04 0 60 37 66 5.10 -83 8 03/24/2025 09:15 AM
35886 -- 4.03 0 58 37 63 5.10 -83 9 03/24/2025 09:00 AM
35885 -- 4.05 0 56 37 64 5.10 -83 8 03/24/2025 08:45 AM
35884 -- 4.04 0 54 37 61 5.10 -83 8 03/24/2025 08:30 AM
35883 -- 4.04 0 52 37 55 5.10 -83 8 03/24/2025 08:15 AM
35882 -- 4.11 48 50 38 54 4.50 -85 8 03/24/2025 08:00 AM
35881 -- 4.04 13 48 39 53 4.60 -83 8 03/24/2025 07:45 AM
35880 -- 4.04 7 47 39 49 4.50 -83 9 03/24/2025 07:30 AM
35879 -- 3.96 -7 47 40 48 4.50 -83 8 03/24/2025 07:15 AM
35878 -- 3.96 -8 46 40 48 1.60 -83 7 03/24/2025 07:00 AM